TimeEST,TemperatureF,Dew PointF,Humidity,Sea Level PressureIn,VisibilityMPH,Wind Direction,Wind SpeedMPH,Gust SpeedMPH,PrecipitationIn,Events,Conditions,WindDirDegrees,DateUTC
12:54 AM,1.0,-9999,N/A,30.38,10.0,Calm,Calm,-,N/A,,Clear,0,2012-12-31 05:54:00
1:54 AM,-9999,-9999,N/A,30.39,10.0,Calm,Calm,-,N/A,,Clear,0,2012-12-31 06:54:00
2:54 AM,-9999,-9999,N/A,30.38,10.0,Calm,Calm,-,N/A,,Clear,0,2012-12-31 07:54:00
3:54 AM,-9999,-9999,N/A,30.38,10.0,Calm,Calm,-,N/A,,Clear,0,2012-12-31 08:54:00
4:54 AM,-9999,-9999,N/A,30.37,10.0,Calm,Calm,-,N/A,,Clear,0,2012-12-31 09:54:00
5:54 AM,-9999,-9999,N/A,30.39,10.0,West,4.6,-,N/A,,Clear,270,2012-12-31 10:54:00
6:54 AM,-9999,-9999,N/A,30.39,10.0,Calm,Calm,-,N/A,,Clear,0,2012-12-31 11:54:00
7:54 AM,-9999,-9999,N/A,30.39,10.0,Calm,Calm,-,N/A,,Clear,0,2012-12-31 12:54:00
8:54 AM,32.0,27.0,82,30.39,10.0,WSW,3.5,-,N/A,,Clear,250,2012-12-31 13:54:00
9:54 AM,41.0,28.0,60,30.40,10.0,SW,3.5,-,N/A,,Clear,230,2012-12-31 14:54:00
10:54 AM,43.0,28.0,56,30.39,10.0,WSW,9.2,-,N/A,,Clear,240,2012-12-31 15:54:00
11:54 AM,46.9,25.0,42,30.35,10.0,SW,9.2,-,N/A,,Clear,230,2012-12-31 16:54:00
12:54 PM,53.1,24.1,32,30.31,10.0,SW,12.7,-,N/A,,Clear,230,2012-12-31 17:54:00
1:54 PM,55.9,22.1,27,30.27,10.0,WSW,10.4,-,N/A,,Clear,240,2012-12-31 18:54:00
2:54 PM,55.9,23.0,28,30.25,10.0,WSW,10.4,-,N/A,,Clear,240,2012-12-31 19:54:00
3:54 PM,55.9,27.1,33,30.25,10.0,SSW,8.1,-,N/A,,Clear,200,2012-12-31 20:54:00
4:54 PM,-9999,-9999,N/A,30.24,10.0,SSW,3.5,-,N/A,,Clear,200,2012-12-31 21:54:00
5:54 PM,-9999,-9999,N/A,30.23,10.0,South,4.6,-,N/A,,Clear,190,2012-12-31 22:54:00
6:54 PM,-9999,-9999,N/A,30.23,10.0,SSW,9.2,-,N/A,,Clear,200,2012-12-31 23:54:00
7:54 PM,-9999,-9999,N/A,30.21,10.0,SSW,6.9,-,N/A,,Scattered Clouds,210,2013-01-01 00:54:00
8:54 PM,-9999,-9999,N/A,30.20,10.0,WSW,8.1,-,N/A,,Overcast,240,2013-01-01 01:54:00
9:54 PM,-9999,-9999,N/A,30.19,10.0,SW,6.9,-,N/A,,Overcast,230,2013-01-01 02:54:00
10:54 PM,-9999,-9999,N/A,30.18,10.0,WSW,6.9,-,N/A,,Overcast,240,2013-01-01 03:54:00
11:54 PM,-9999,-9999,N/A,30.15,10.0,SW,8.1,-,N/A,,Overcast,230,2013-01-01 04:54:00